Time,TemperatureF,DewpointF,PressureIn,WindDirection,WindDirectionDegrees,WindSpeedMPH,WindSpeedGustMPH,Humidity,HourlyPrecipIn,Conditions,Clouds,dailyrainin,SoftwareType,DateUTC
2013-03-07 02:01:00,50.7,3.3,30.14,North,6,0.0,0.0,14,0.00,,---,0.00,VWS V14.01,2013-03-07 07:01:00,
2013-03-07 02:07:00,50.4,3.0,30.14,North,6,3.1,3.1,14,0.00,,---,0.00,VWS V14.01,2013-03-07 07:07:00,
2013-03-07 02:12:00,50.4,3.0,30.14,NNE,16,0.0,0.0,14,0.00,,---,0.00,VWS V14.01,2013-03-07 07:12:00,
2013-03-07 02:17:00,50.2,2.8,30.14,NE,40,0.0,4.0,14,0.00,,---,0.00,VWS V14.01,2013-03-07 07:17:00,
2013-03-07 02:22:00,50.0,2.7,30.14,North,3,0.0,0.0,14,0.00,,---,0.00,VWS V14.01,2013-03-07 07:22:00,
2013-03-07 02:27:00,50.0,2.7,30.14,North,3,0.0,0.0,14,0.00,,---,0.00,VWS V14.01,2013-03-07 07:27:00,
2013-03-07 02:32:00,49.8,2.5,30.14,North,0,0.0,0.0,14,0.00,,---,0.00,VWS V14.01,2013-03-07 07:32:00,
2013-03-07 02:37:00,49.6,2.4,30.14,North,350,0.0,0.0,14,0.00,,---,0.00,VWS V14.01,2013-03-07 07:37:00,
2013-03-07 02:42:00,49.6,2.4,30.14,North,353,0.0,0.0,14,0.00,,---,0.00,VWS V14.01,2013-03-07 07:42:00,
2013-03-07 02:47:00,49.5,2.3,30.14,NNE,16,0.0,0.0,14,0.00,,---,0.00,VWS V14.01,2013-03-07 07:47:00,
2013-03-07 02:52:00,49.3,2.1,30.14,North,10,2.2,3.1,14,0.00,,---,0.00,VWS V14.01,2013-03-07 07:52:00,
2013-03-07 02:57:00,49.3,2.1,30.14,North,8,0.0,0.0,14,0.00,,---,0.00,VWS V14.01,2013-03-07 07:57:00,
2013-03-07 03:02:00,49.1,2.0,30.14,NNE,21,0.0,0.0,14,0.00,,---,0.00,VWS V14.01,2013-03-07 08:02:00,
2013-03-07 03:07:00,49.1,2.0,30.14,North,1,3.6,4.5,14,0.00,,---,0.00,VWS V14.01,2013-03-07 08:07:00,
2013-03-07 03:12:00,48.9,1.8,30.14,NNW,344,0.0,0.0,14,0.00,,---,0.00,VWS V14.01,2013-03-07 08:12:00,
2013-03-07 03:17:00,48.9,1.8,30.14,North,11,3.1,3.1,14,0.00,,---,0.00,VWS V14.01,2013-03-07 08:17:00,
2013-03-07 03:22:00,48.7,1.7,30.14,North,350,0.0,0.0,14,0.00,,---,0.00,VWS V14.01,2013-03-07 08:22:00,
2013-03-07 03:27:00,48.9,1.8,30.14,North,349,0.0,2.2,14,0.00,,---,0.00,VWS V14.01,2013-03-07 08:27:00,
2013-03-07 03:32:00,48.7,1.7,30.14,North,349,0.0,0.0,14,0.00,,---,0.00,VWS V14.01,2013-03-07 08:32:00,
2013-03-07 03:37:00,48.7,1.7,30.14,North,357,0.0,0.0,14,0.00,,---,0.00,VWS V14.01,2013-03-07 08:37:00,
2013-03-07 03:42:00,48.6,1.5,30.14,NNE,28,3.1,3.1,14,0.00,,---,0.00,VWS V14.01,2013-03-07 08:42:00,
2013-03-07 03:47:00,48.6,1.5,30.14,North,0,0.0,0.0,14,0.00,,---,0.00,VWS V14.01,2013-03-07 08:47:00,
2013-03-07 03:52:00,48.4,1.4,30.14,North,0,0.0,0.0,14,0.00,,---,0.00,VWS V14.01,2013-03-07 08:52:00,
2013-03-07 03:57:00,48.4,1.4,30.14,NNE,22,2.7,2.7,14,0.00,,---,0.00,VWS V14.01,2013-03-07 08:57:00,
2013-03-07 04:02:00,48.2,1.2,30.14,NNE,19,3.1,3.1,14,0.00,,---,0.00,VWS V14.01,2013-03-07 09:02:00,
2013-03-07 04:07:00,48.2,1.2,30.14,North,4,3.1,3.6,14,0.00,,---,0.00,VWS V14.01,2013-03-07 09:07:00,
2013-03-07 04:12:00,48.2,1.2,30.14,North,4,2.7,2.7,14,0.00,,---,0.00,VWS V14.01,2013-03-07 09:12:00,
2013-03-07 04:17:00,48.0,1.1,30.14,North,0,3.1,3.1,14,0.00,,---,0.00,VWS V14.01,2013-03-07 09:17:00,
2013-03-07 04:22:00,48.0,1.1,30.14,North,1,0.0,3.6,14,0.00,,---,0.00,VWS V14.01,2013-03-07 09:22:00,
2013-03-07 04:27:00,48.0,1.1,30.14,NNE,21,0.0,0.0,14,0.00,,---,0.00,VWS V14.01,2013-03-07 09:27:00,
2013-03-07 04:32:00,48.0,1.1,30.14,NNE,30,2.7,2.7,14,0.00,,---,0.00,VWS V14.01,2013-03-07 09:32:00,
2013-03-07 04:37:00,47.8,1.0,30.14,NNE,13,3.6,3.6,14,0.00,,---,0.00,VWS V14.01,2013-03-07 09:37:00,
2013-03-07 04:42:00,47.8,1.0,30.14,North,357,2.7,2.7,14,0.00,,---,0.00,VWS V14.01,2013-03-07 09:42:00,
2013-03-07 04:47:00,47.8,1.0,30.14,North,0,4.0,4.0,14,0.00,,---,0.00,VWS V14.01,2013-03-07 09:47:00,
2013-03-07 04:52:00,47.7,0.8,30.14,NNE,33,3.1,3.1,14,0.00,,---,0.00,VWS V14.01,2013-03-07 09:52:00,
2013-03-07 04:57:00,47.7,0.8,30.16,NNE,18,3.1,3.1,14,0.00,,---,0.00,VWS V14.01,2013-03-07 09:57:00,
2013-03-07 05:02:00,47.5,0.7,30.16,NNE,20,4.0,4.0,14,0.00,,---,0.00,VWS V14.01,2013-03-07 10:02:00,
2013-03-07 05:07:00,47.5,0.7,30.16,North,357,3.1,4.0,14,0.00,,---,0.00,VWS V14.01,2013-03-07 10:07:00,
2013-03-07 05:12:00,47.5,0.7,30.16,North,357,2.2,2.2,14,0.00,,---,0.00,VWS V14.01,2013-03-07 10:12:00,
2013-03-07 05:17:00,47.3,0.5,30.16,North,4,0.0,2.2,14,0.00,,---,0.00,VWS V14.01,2013-03-07 10:17:00,
2013-03-07 05:22:00,47.3,0.5,30.16,NNE,21,0.0,3.6,14,0.00,,---,0.00,VWS V14.01,2013-03-07 10:22:00,
2013-03-07 05:27:00,47.1,0.4,30.16,North,8,0.0,0.0,14,0.00,,---,0.00,VWS V14.01,2013-03-07 10:27:00,
2013-03-07 05:32:00,47.1,0.4,30.16,NNE,13,3.1,3.1,14,0.00,,---,0.00,VWS V14.01,2013-03-07 10:32:00,
2013-03-07 05:37:00,47.1,0.4,30.16,North,353,3.1,3.1,14,0.00,,---,0.00,VWS V14.01,2013-03-07 10:37:00,
2013-03-07 05:42:00,46.9,0.2,30.16,North,349,0.0,0.0,14,0.00,,---,0.00,VWS V14.01,2013-03-07 10:42:00,
2013-03-07 05:47:00,46.9,0.2,30.16,North,357,0.0,0.0,14,0.00,,---,0.00,VWS V14.01,2013-03-07 10:47:00,
2013-03-07 05:52:00,46.8,0.1,30.16,North,5,2.2,4.0,14,0.00,,---,0.00,VWS V14.01,2013-03-07 10:52:00,
2013-03-07 05:57:00,46.8,0.1,30.16,NNE,28,0.0,0.0,14,0.00,,---,0.00,VWS V14.01,2013-03-07 10:57:00,
2013-03-07 06:02:00,46.8,0.1,30.16,North,357,0.0,2.7,14,0.00,,---,0.00,VWS V14.01,2013-03-07 11:02:00,
2013-03-07 06:07:00,46.6,-0.1,30.16,NNE,21,3.1,3.1,14,0.00,,---,0.00,VWS V14.01,2013-03-07 11:07:00,
2013-03-07 06:12:00,46.6,-0.1,30.16,NNE,18,0.0,0.0,14,0.00,,---,0.00,VWS V14.01,2013-03-07 11:12:00,
2013-03-07 06:17:00,46.4,-0.2,30.16,North,349,2.2,2.2,14,0.00,,---,0.00,VWS V14.01,2013-03-07 11:17:00,
2013-03-07 06:22:00,46.2,1.1,30.16,NNE,30,2.7,3.6,15,0.00,,---,0.00,VWS V14.01,2013-03-07 11:22:00,
2013-03-07 06:27:00,46.0,1.0,30.16,North,9,0.0,0.0,15,0.00,,---,0.00,VWS V14.01,2013-03-07 11:27:00,
2013-03-07 06:32:00,45.9,0.8,30.16,NNE,18,0.0,0.0,15,0.00,,---,0.00,VWS V14.01,2013-03-07 11:32:00,
2013-03-07 06:38:00,45.7,0.7,30.16,NNW,342,2.7,3.6,15,0.00,,---,0.00,VWS V14.01,2013-03-07 11:38:00,
2013-03-07 06:42:00,45.5,0.6,30.16,NNE,24,3.1,3.1,15,0.00,,---,0.00,VWS V14.01,2013-03-07 11:42:00,
2013-03-07 06:48:00,45.5,0.6,30.16,NNW,344,0.0,3.6,15,0.00,,---,0.00,VWS V14.01,2013-03-07 11:48:00,
2013-03-07 06:53:00,45.5,0.6,30.16,NNW,344,0.0,0.0,15,0.00,,---,0.00,VWS V14.01,2013-03-07 11:53:00,
2013-03-07 06:58:00,45.3,0.4,30.16,NNW,344,0.0,0.0,15,0.00,,---,0.00,VWS V14.01,2013-03-07 11:58:00,
2013-03-07 07:03:00,45.3,0.4,30.16,NNE,17,2.7,3.1,15,0.00,,---,0.00,VWS V14.01,2013-03-07 12:03:00,
2013-03-07 07:08:00,45.3,0.4,30.16,NNW,341,2.7,2.7,15,0.00,,---,0.00,VWS V14.01,2013-03-07 12:08:00,
2013-03-07 07:13:00,45.1,0.3,30.19,NNW,348,2.7,4.9,15,0.00,,---,0.00,VWS V14.01,2013-03-07 12:13:00,
2013-03-07 07:18:00,45.3,0.4,30.19,North,4,0.0,0.0,15,0.00,,---,0.00,VWS V14.01,2013-03-07 12:18:00,
2013-03-07 07:23:00,45.3,0.4,30.19,North,8,4.0,4.0,15,0.00,,---,0.00,VWS V14.01,2013-03-07 12:23:00,
2013-03-07 07:28:00,45.5,0.6,30.19,North,11,2.2,3.1,15,0.00,,---,0.00,VWS V14.01,2013-03-07 12:28:00,
2013-03-07 07:33:00,45.5,0.6,30.19,NNE,18,0.0,2.7,15,0.00,,---,0.00,VWS V14.01,2013-03-07 12:33:00,
2013-03-07 07:38:00,45.7,0.7,30.19,NNE,17,3.1,3.1,15,0.00,,---,0.00,VWS V14.01,2013-03-07 12:38:00,
2013-03-07 07:43:00,45.9,0.8,30.19,NNE,33,2.7,3.6,15,0.00,,---,0.00,VWS V14.01,2013-03-07 12:43:00,
2013-03-07 07:48:00,45.9,0.8,30.19,North,0,2.2,3.6,15,0.00,,---,0.00,VWS V14.01,2013-03-07 12:48:00,
2013-03-07 07:53:00,46.0,1.0,30.19,North,357,3.1,4.9,15,0.00,,---,0.00,VWS V14.01,2013-03-07 12:53:00,
2013-03-07 07:58:00,46.2,1.1,30.19,NNE,15,5.8,5.8,15,0.00,,---,0.00,VWS V14.01,2013-03-07 12:58:00,
2013-03-07 08:03:00,46.2,1.1,30.19,North,1,3.6,6.3,15,0.00,,---,0.00,VWS V14.01,2013-03-07 13:03:00,
2013-03-07 08:08:00,46.2,1.1,30.19,NNE,31,2.7,4.9,15,0.00,,---,0.00,VWS V14.01,2013-03-07 13:08:00,
2013-03-07 08:13:00,46.4,-0.2,30.19,NE,38,3.6,3.6,14,0.00,,---,0.00,VWS V14.01,2013-03-07 13:13:00,
2013-03-07 08:18:00,46.4,-0.2,30.19,North,11,3.1,3.1,14,0.00,,---,0.00,VWS V14.01,2013-03-07 13:18:00,
2013-03-07 08:23:00,46.6,-0.1,30.19,NNE,29,3.6,3.6,14,0.00,,---,0.00,VWS V14.01,2013-03-07 13:23:00,
2013-03-07 08:28:00,46.6,-0.1,30.19,NNE,12,5.4,5.4,14,0.00,,---,0.00,VWS V14.01,2013-03-07 13:28:00,
2013-03-07 08:33:00,46.6,-0.1,30.19,North,357,3.6,6.3,14,0.00,,---,0.00,VWS V14.01,2013-03-07 13:33:00,
2013-03-07 08:38:00,46.9,0.2,30.19,NNE,28,4.0,4.0,14,0.00,,---,0.00,VWS V14.01,2013-03-07 13:38:00,
2013-03-07 08:43:00,47.3,0.5,30.19,NNW,346,5.4,5.4,14,0.00,,---,0.00,VWS V14.01,2013-03-07 13:43:00,
2013-03-07 08:48:00,47.3,0.5,30.19,North,0,4.0,5.4,14,0.00,,---,0.00,VWS V14.01,2013-03-07 13:48:00,
2013-03-07 08:53:00,47.7,0.8,30.19,North,357,0.0,3.1,14,0.00,,---,0.00,VWS V14.01,2013-03-07 13:53:00,
2013-03-07 08:58:00,48.0,1.1,30.19,East,89,0.0,0.0,14,0.00,,---,0.00,VWS V14.01,2013-03-07 13:58:00,
2013-03-07 09:03:00,48.2,1.2,30.19,North,357,2.2,3.6,14,0.00,,---,0.00,VWS V14.01,2013-03-07 14:03:00,
2013-03-07 09:08:00,48.4,1.4,30.19,North,8,4.0,7.6,14,0.00,,---,0.00,VWS V14.01,2013-03-07 14:08:00,
2013-03-07 09:13:00,48.6,1.5,30.19,NE,34,3.1,3.6,14,0.00,,---,0.00,VWS V14.01,2013-03-07 14:13:00,
2013-03-07 09:18:00,48.7,1.7,30.19,North,353,2.2,4.0,14,0.00,,---,0.00,VWS V14.01,2013-03-07 14:18:00,
2013-03-07 09:23:00,49.1,2.0,30.19,North,0,6.7,6.7,14,0.00,,---,0.00,VWS V14.01,2013-03-07 14:23:00,
2013-03-07 09:28:00,49.3,2.1,30.22,NNE,22,2.2,3.6,14,0.00,,---,0.00,VWS V14.01,2013-03-07 14:28:00,
2013-03-07 09:33:00,49.3,2.1,30.22,North,3,4.9,4.9,14,0.00,,---,0.00,VWS V14.01,2013-03-07 14:33:00,
2013-03-07 09:38:00,49.6,2.4,30.22,North,4,3.6,3.6,14,0.00,,---,0.00,VWS V14.01,2013-03-07 14:38:00,
2013-03-07 09:43:00,50.2,2.8,30.22,NNE,15,0.0,0.0,14,0.00,,---,0.00,VWS V14.01,2013-03-07 14:43:00,
2013-03-07 09:48:00,50.9,3.4,30.22,NNE,33,0.0,0.0,14,0.00,,---,0.00,VWS V14.01,2013-03-07 14:48:00,
2013-03-07 09:53:00,51.4,3.8,30.22,East,91,2.2,2.2,14,0.00,,---,0.00,VWS V14.01,2013-03-07 14:53:00,
2013-03-07 09:58:00,51.4,3.8,30.22,East,80,0.0,0.0,14,0.00,,---,0.00,VWS V14.01,2013-03-07 14:58:00,
2013-03-07 10:03:00,51.4,3.8,30.22,NNE,30,3.1,3.6,14,0.00,,---,0.00,VWS V14.01,2013-03-07 15:03:00,
2013-03-07 10:08:00,51.4,3.8,30.22,NNE,13,0.0,0.0,14,0.00,,---,0.00,VWS V14.01,2013-03-07 15:08:00,
2013-03-07 10:13:00,51.6,4.0,30.22,North,7,2.2,4.0,14,0.00,,---,0.00,VWS V14.01,2013-03-07 15:13:00,
2013-03-07 10:18:00,52.2,2.8,30.22,NNE,32,2.2,2.2,13,0.00,,---,0.00,VWS V14.01,2013-03-07 15:18:00,
2013-03-07 10:23:00,52.3,3.0,30.22,North,353,2.7,4.9,13,0.00,,---,0.00,VWS V14.01,2013-03-07 15:23:00,
2013-03-07 10:28:00,52.3,3.0,30.22,North,11,2.7,2.7,13,0.00,,---,0.00,VWS V14.01,2013-03-07 15:28:00,
2013-03-07 10:33:00,52.5,3.1,30.22,NNE,23,2.2,2.2,13,0.00,,---,0.00,VWS V14.01,2013-03-07 15:33:00,
2013-03-07 10:38:00,53.1,3.5,30.22,NNE,18,4.5,4.5,13,0.00,,---,0.00,VWS V14.01,2013-03-07 15:38:00,
2013-03-07 10:43:00,53.6,4.0,30.22,North,357,2.7,6.3,13,0.00,,---,0.00,VWS V14.01,2013-03-07 15:43:00,
2013-03-07 10:48:00,53.8,4.1,30.22,North,357,3.1,3.6,13,0.00,,---,0.00,VWS V14.01,2013-03-07 15:48:00,
2013-03-07 10:53:00,54.0,4.2,30.22,NNW,331,4.0,4.0,13,0.00,,---,0.00,VWS V14.01,2013-03-07 15:53:00,
2013-03-07 10:58:00,54.0,4.2,30.22,NE,37,2.7,4.0,13,0.00,,---,0.00,VWS V14.01,2013-03-07 15:58:00,
2013-03-07 11:03:00,54.3,4.5,30.22,NNE,29,2.7,2.7,13,0.00,,---,0.00,VWS V14.01,2013-03-07 16:03:00,
2013-03-07 11:08:00,54.7,4.8,30.22,North,0,5.4,5.8,13,0.00,,---,0.00,VWS V14.01,2013-03-07 16:08:00,
2013-03-07 11:13:00,54.7,4.8,30.22,North,353,4.0,4.0,13,0.00,,---,0.00,VWS V14.01,2013-03-07 16:13:00,
2013-03-07 11:18:00,54.7,4.8,30.22,NNE,16,4.0,4.0,13,0.00,,---,0.00,VWS V14.01,2013-03-07 16:18:00,
2013-03-07 11:23:00,55.0,5.1,30.22,ESE,120,0.0,4.0,13,0.00,,---,0.00,VWS V14.01,2013-03-07 16:23:00,
2013-03-07 11:28:00,55.4,3.7,30.22,NNE,30,0.0,3.1,12,0.00,,---,0.00,VWS V14.01,2013-03-07 16:28:00,
2013-03-07 11:33:00,55.8,3.9,30.22,East,88,0.0,0.0,12,0.00,,---,0.00,VWS V14.01,2013-03-07 16:33:00,
2013-03-07 11:38:00,56.3,4.4,30.22,North,4,2.7,2.7,12,0.00,,---,0.00,VWS V14.01,2013-03-07 16:38:00,
2013-03-07 11:43:00,56.7,4.6,30.22,NNE,16,2.7,4.0,12,0.00,,---,0.00,VWS V14.01,2013-03-07 16:43:00,
2013-03-07 11:48:00,56.3,4.4,30.22,North,357,3.6,3.6,12,0.00,,---,0.00,VWS V14.01,2013-03-07 16:48:00,
2013-03-07 11:53:00,56.5,4.5,30.22,SSW,212,2.2,2.2,12,0.00,,---,0.00,VWS V14.01,2013-03-07 16:53:00,
2013-03-07 11:58:00,56.8,4.8,30.22,East,98,0.0,0.0,12,0.00,,---,0.00,VWS V14.01,2013-03-07 16:58:00,
2013-03-07 12:03:00,57.2,5.1,30.22,NNE,26,4.0,4.0,12,0.00,,---,0.00,VWS V14.01,2013-03-07 17:03:00,
2013-03-07 12:08:00,57.6,5.3,30.22,NNE,23,3.6,3.6,12,0.00,,---,0.00,VWS V14.01,2013-03-07 17:08:00,
2013-03-07 12:13:00,57.7,5.5,30.22,North,357,0.0,0.0,12,0.00,,---,0.00,VWS V14.01,2013-03-07 17:13:00,
2013-03-07 12:18:00,57.7,5.5,30.22,East,89,0.0,0.0,12,0.00,,---,0.00,VWS V14.01,2013-03-07 17:18:00,
2013-03-07 12:23:00,57.9,5.6,30.22,North,353,0.0,0.0,12,0.00,,---,0.00,VWS V14.01,2013-03-07 17:23:00,
2013-03-07 12:28:00,57.9,5.6,30.22,NNE,22,3.6,3.6,12,0.00,,---,0.00,VWS V14.01,2013-03-07 17:28:00,
2013-03-07 12:33:00,58.5,6.1,30.22,NW,320,3.1,3.1,12,0.00,,---,0.00,VWS V14.01,2013-03-07 17:33:00,
2013-03-07 12:38:00,59.2,6.6,30.22,NNE,27,3.1,3.1,12,0.00,,---,0.00,VWS V14.01,2013-03-07 17:38:00,
2013-03-07 12:43:00,59.7,7.0,30.22,NW,326,2.7,3.1,12,0.00,,---,0.00,VWS V14.01,2013-03-07 17:43:00,
2013-03-07 12:48:00,60.1,7.3,30.22,NNE,22,2.2,2.7,12,0.00,,---,0.00,VWS V14.01,2013-03-07 17:48:00,
2013-03-07 12:53:00,60.4,7.6,30.22,NNE,14,3.6,3.6,12,0.00,,---,0.00,VWS V14.01,2013-03-07 17:53:00,
2013-03-07 12:58:00,60.6,7.8,30.19,NNE,16,0.0,0.0,12,0.00,,---,0.00,VWS V14.01,2013-03-07 17:58:00,
2013-03-07 13:03:00,61.0,6.1,30.19,NW,307,3.6,3.6,11,0.00,,---,0.00,VWS V14.01,2013-03-07 18:03:00,
2013-03-07 13:08:00,61.7,6.7,30.19,North,0,2.2,2.2,11,0.00,,---,0.00,VWS V14.01,2013-03-07 18:08:00,
2013-03-07 13:13:00,61.9,6.8,30.19,NNE,22,3.1,5.8,11,0.00,,---,0.00,VWS V14.01,2013-03-07 18:13:00,
2013-03-07 13:18:00,61.7,6.7,30.19,NNW,337,0.0,0.0,11,0.00,,---,0.00,VWS V14.01,2013-03-07 18:18:00,
2013-03-07 13:23:00,62.2,7.1,30.19,NNE,32,0.0,2.2,11,0.00,,---,0.00,VWS V14.01,2013-03-07 18:23:00,
2013-03-07 13:28:00,62.6,7.4,30.19,WNW,289,2.7,2.7,11,0.00,,---,0.00,VWS V14.01,2013-03-07 18:28:00,
2013-03-07 13:33:00,63.0,7.7,30.19,NW,326,0.0,0.0,11,0.00,,---,0.00,VWS V14.01,2013-03-07 18:33:00,
2013-03-07 13:38:00,63.1,7.8,30.19,North,7,0.0,0.0,11,0.00,,---,0.00,VWS V14.01,2013-03-07 18:38:00,
2013-03-07 13:43:00,64.0,8.5,30.19,NNW,329,0.0,0.0,11,0.00,,---,0.00,VWS V14.01,2013-03-07 18:43:00,
2013-03-07 13:48:00,64.8,6.9,30.19,North,357,2.2,2.7,10,0.00,,---,0.00,VWS V14.01,2013-03-07 18:48:00,
2013-03-07 13:53:00,65.5,7.5,30.16,NNW,342,0.0,0.0,10,0.00,,---,0.00,VWS V14.01,2013-03-07 18:53:00,
2013-03-07 13:58:00,66.4,8.2,30.16,NNW,342,0.0,0.0,10,0.00,,---,0.00,VWS V14.01,2013-03-07 18:58:00,
2013-03-07 14:03:00,66.9,8.6,30.16,North,357,0.0,0.0,10,0.00,,---,0.00,VWS V14.01,2013-03-07 19:03:00,
2013-03-07 14:08:00,66.6,8.3,30.16,SW,220,0.0,4.0,10,0.00,,---,0.00,VWS V14.01,2013-03-07 19:08:00,
2013-03-07 14:13:00,66.9,8.6,30.16,North,353,0.0,0.0,10,0.00,,---,0.00,VWS V14.01,2013-03-07 19:13:00,
2013-03-07 14:18:00,66.9,8.6,30.16,NNW,348,3.6,3.6,10,0.00,,---,0.00,VWS V14.01,2013-03-07 19:18:00,
2013-03-07 14:23:00,66.9,8.6,30.16,NE,56,6.3,6.3,10,0.00,,---,0.00,VWS V14.01,2013-03-07 19:23:00,
2013-03-07 14:28:00,65.1,7.2,30.16,NNE,12,3.6,5.4,10,0.00,,---,0.00,VWS V14.01,2013-03-07 19:28:00,
2013-03-07 14:33:00,65.3,7.4,30.16,NNW,330,3.6,4.0,10,0.00,,---,0.00,VWS V14.01,2013-03-07 19:33:00,
2013-03-07 14:38:00,65.3,7.4,30.16,NNW,331,3.1,3.1,10,0.00,,---,0.00,VWS V14.01,2013-03-07 19:38:00,
2013-03-07 14:43:00,65.5,7.5,30.16,North,3,3.1,3.6,10,0.00,,---,0.00,VWS V14.01,2013-03-07 19:43:00,
2013-03-07 14:48:00,64.9,7.1,30.16,NNE,26,3.6,3.6,10,0.00,,---,0.00,VWS V14.01,2013-03-07 19:48:00,
2013-03-07 14:53:00,65.7,7.6,30.16,North,10,3.1,3.1,10,0.00,,---,0.00,VWS V14.01,2013-03-07 19:53:00,
2013-03-07 14:58:00,65.3,7.4,30.16,NNE,19,2.7,3.6,10,0.00,,---,0.00,VWS V14.01,2013-03-07 19:58:00,
2013-03-07 15:03:00,64.6,6.8,30.16,North,0,4.9,4.9,10,0.00,,---,0.00,VWS V14.01,2013-03-07 20:03:00,
2013-03-07 15:08:00,64.0,8.5,30.16,NNW,339,3.6,4.0,11,0.00,,---,0.00,VWS V14.01,2013-03-07 20:08:00,
2013-03-07 15:13:00,63.9,8.4,30.16,ENE,68,4.0,4.0,11,0.00,,---,0.00,VWS V14.01,2013-03-07 20:13:00,
2013-03-07 15:18:00,63.9,8.4,30.16,North,357,2.2,4.0,11,0.00,,---,0.00,VWS V14.01,2013-03-07 20:18:00,
2013-03-07 15:23:00,63.5,8.1,30.16,NNE,22,2.7,3.1,11,0.00,,---,0.00,VWS V14.01,2013-03-07 20:23:00,
2013-03-07 15:28:00,62.4,7.2,30.16,NNE,26,3.6,6.3,11,0.00,,---,0.00,VWS V14.01,2013-03-07 20:28:00,
2013-03-07 15:33:00,62.4,7.2,30.16,NNW,330,3.1,4.0,11,0.00,,---,0.00,VWS V14.01,2013-03-07 20:33:00,
2013-03-07 15:38:00,62.2,7.1,30.16,North,353,3.6,3.6,11,0.00,,---,0.00,VWS V14.01,2013-03-07 20:38:00,
2013-03-07 15:43:00,61.3,6.4,30.16,WNW,301,3.1,3.6,11,0.00,,---,0.00,VWS V14.01,2013-03-07 20:43:00,
2013-03-07 15:48:00,60.8,6.0,30.16,NNE,12,3.1,5.4,11,0.00,,---,0.00,VWS V14.01,2013-03-07 20:48:00,
2013-03-07 15:54:00,60.6,7.8,30.16,North,9,2.7,4.0,12,0.00,,---,0.00,VWS V14.01,2013-03-07 20:54:00,
2013-03-07 15:59:00,60.1,7.3,30.16,NW,325,0.0,2.7,12,0.00,,---,0.00,VWS V14.01,2013-03-07 20:59:00,
2013-03-07 16:04:00,59.7,7.0,30.16,NNE,18,2.7,3.6,12,0.00,,---,0.00,VWS V14.01,2013-03-07 21:04:00,
2013-03-07 16:09:00,59.7,7.0,30.16,NE,36,3.1,3.6,12,0.00,,---,0.00,VWS V14.01,2013-03-07 21:09:00,
2013-03-07 16:14:00,59.4,6.8,30.16,NNW,341,0.0,3.1,12,0.00,,---,0.00,VWS V14.01,2013-03-07 21:14:00,
2013-03-07 16:19:00,59.4,6.8,30.16,NNE,22,2.2,4.0,12,0.00,,---,0.00,VWS V14.01,2013-03-07 21:19:00,
2013-03-07 16:24:00,59.4,6.8,30.16,NW,317,2.2,2.2,12,0.00,,---,0.00,VWS V14.01,2013-03-07 21:24:00,
2013-03-07 16:29:00,59.5,6.9,30.16,NNE,24,0.0,0.0,12,0.00,,---,0.00,VWS V14.01,2013-03-07 21:29:00,
2013-03-07 16:34:00,59.5,6.9,30.16,NW,322,0.0,0.0,12,0.00,,---,0.00,VWS V14.01,2013-03-07 21:34:00,
2013-03-07 16:39:00,59.5,6.9,30.16,NNE,17,0.0,0.0,12,0.00,,---,0.00,VWS V14.01,2013-03-07 21:39:00,
2013-03-07 16:44:00,59.2,6.6,30.16,North,0,2.7,3.1,12,0.00,,---,0.00,VWS V14.01,2013-03-07 21:44:00,
2013-03-07 16:49:00,59.0,6.5,30.16,NW,309,0.0,0.0,12,0.00,,---,0.00,VWS V14.01,2013-03-07 21:49:00,
2013-03-07 16:54:00,59.0,6.5,30.16,WNW,300,2.7,4.0,12,0.00,,---,0.00,VWS V14.01,2013-03-07 21:54:00,
2013-03-07 16:59:00,58.8,6.3,30.16,NNE,23,0.0,0.0,12,0.00,,---,0.00,VWS V14.01,2013-03-07 21:59:00,
2013-03-07 17:04:00,58.5,6.1,30.16,NNW,327,0.0,0.0,12,0.00,,---,0.00,VWS V14.01,2013-03-07 22:04:00,
2013-03-07 17:09:00,58.5,6.1,30.16,NNE,16,0.0,0.0,12,0.00,,---,0.00,VWS V14.01,2013-03-07 22:09:00,
2013-03-07 17:14:00,58.5,6.1,30.16,NNE,28,4.9,4.9,12,0.00,,---,0.00,VWS V14.01,2013-03-07 22:14:00,
2013-03-07 17:19:00,58.1,5.8,30.16,North,0,0.0,2.7,12,0.00,,---,0.00,VWS V14.01,2013-03-07 22:19:00,
2013-03-07 17:24:00,58.3,5.9,30.16,North,11,2.7,3.6,12,0.00,,---,0.00,VWS V14.01,2013-03-07 22:24:00,
2013-03-07 17:29:00,58.3,5.9,30.16,NNW,343,2.2,2.2,12,0.00,,---,0.00,VWS V14.01,2013-03-07 22:29:00,
2013-03-07 17:34:00,58.3,5.9,30.16,NNW,346,0.0,0.0,12,0.00,,---,0.00,VWS V14.01,2013-03-07 22:34:00,
2013-03-07 17:39:00,58.1,5.8,30.16,NW,312,0.0,0.0,12,0.00,,---,0.00,VWS V14.01,2013-03-07 22:39:00,
2013-03-07 17:44:00,58.1,5.8,30.16,NE,35,0.0,0.0,12,0.00,,---,0.00,VWS V14.01,2013-03-07 22:44:00,
2013-03-07 17:49:00,57.9,5.6,30.16,NNW,344,0.0,0.0,12,0.00,,---,0.00,VWS V14.01,2013-03-07 22:49:00,
2013-03-07 17:54:00,57.9,5.6,30.16,NNE,33,0.0,2.2,12,0.00,,---,0.00,VWS V14.01,2013-03-07 22:54:00,
2013-03-07 17:59:00,57.9,5.6,30.16,NW,318,0.0,0.0,12,0.00,,---,0.00,VWS V14.01,2013-03-07 22:59:00,
2013-03-07 18:04:00,58.1,5.8,30.16,West,274,0.0,0.0,12,0.00,,---,0.00,VWS V14.01,2013-03-07 23:04:00,
2013-03-07 18:09:00,57.6,5.3,30.16,NW,304,0.0,0.0,12,0.00,,---,0.00,VWS V14.01,2013-03-07 23:09:00,
2013-03-07 18:14:00,56.8,4.8,30.16,NW,316,0.0,0.0,12,0.00,,---,0.00,VWS V14.01,2013-03-07 23:14:00,
2013-03-07 18:19:00,56.5,4.5,30.16,NNW,341,2.2,2.7,12,0.00,,---,0.00,VWS V14.01,2013-03-07 23:19:00,
2013-03-07 18:24:00,56.1,4.2,30.16,West,278,0.0,3.1,12,0.00,,---,0.00,VWS V14.01,2013-03-07 23:24:00,
2013-03-07 18:29:00,55.8,3.9,30.16,NNW,334,0.0,0.0,12,0.00,,---,0.00,VWS V14.01,2013-03-07 23:29:00,
2013-03-07 18:34:00,55.4,3.7,30.16,NNE,24,0.0,2.2,12,0.00,,---,0.00,VWS V14.01,2013-03-07 23:34:00,
2013-03-07 18:39:00,55.2,5.2,30.16,NW,315,0.0,0.0,13,0.00,,---,0.00,VWS V14.01,2013-03-07 23:39:00,
2013-03-07 18:44:00,54.9,5.0,30.16,NW,321,0.0,0.0,13,0.00,,---,0.00,VWS V14.01,2013-03-07 23:44:00,
2013-03-07 18:49:00,54.7,4.8,30.16,NW,317,0.0,0.0,13,0.00,,---,0.00,VWS V14.01,2013-03-07 23:49:00,
2013-03-07 18:54:00,54.5,4.7,30.16,NNE,28,0.0,2.7,13,0.00,,---,0.00,VWS V14.01,2013-03-07 23:54:00,
2013-03-07 18:59:00,54.5,4.7,30.16,NNE,26,0.0,0.0,13,0.00,,---,0.00,VWS V14.01,2013-03-07 23:59:00,
2013-03-07 19:04:00,54.3,4.5,30.16,NNE,25,0.0,0.0,13,0.00,,---,0.00,VWS V14.01,2013-03-08 00:04:00,
2013-03-07 19:09:00,54.1,4.4,30.16,North,353,0.0,0.0,13,0.00,,---,0.00,VWS V14.01,2013-03-08 00:09:00,
2013-03-07 19:14:00,54.0,4.2,30.16,North,353,0.0,0.0,13,0.00,,---,0.00,VWS V14.01,2013-03-08 00:14:00,
2013-03-07 19:19:00,54.0,4.2,30.16,North,353,0.0,0.0,13,0.00,,---,0.00,VWS V14.01,2013-03-08 00:19:00,
2013-03-07 19:24:00,53.8,4.1,30.19,North,353,0.0,0.0,13,0.00,,---,0.00,VWS V14.01,2013-03-08 00:24:00,
2013-03-07 19:29:00,53.6,4.0,30.19,NNE,12,0.0,0.0,13,0.00,,---,0.00,VWS V14.01,2013-03-08 00:29:00,
2013-03-07 19:34:00,53.4,3.8,30.19,NNE,12,0.0,0.0,13,0.00,,---,0.00,VWS V14.01,2013-03-08 00:34:00,
2013-03-07 19:39:00,53.2,3.7,30.19,NNE,12,0.0,0.0,13,0.00,,---,0.00,VWS V14.01,2013-03-08 00:39:00,
2013-03-07 19:44:00,53.1,8.1,30.19,NNE,12,0.0,0.0,16,0.00,,---,0.00,VWS V14.01,2013-03-08 00:44:00,
2013-03-07 19:49:00,53.1,8.1,30.19,NNE,12,0.0,0.0,16,0.00,,---,0.00,VWS V14.01,2013-03-08 00:49:00,
2013-03-07 19:54:00,52.9,7.9,30.19,NNE,12,0.0,0.0,16,0.00,,---,0.00,VWS V14.01,2013-03-08 00:54:00,
2013-03-07 19:59:00,52.7,7.8,30.19,NNE,12,0.0,0.0,16,0.00,,---,0.00,VWS V14.01,2013-03-08 00:59:00,
2013-03-07 20:04:00,52.5,7.6,30.19,NNE,12,0.0,0.0,16,0.00,,---,0.00,VWS V14.01,2013-03-08 01:04:00,
2013-03-07 20:09:00,52.3,7.5,30.19,NNE,12,0.0,0.0,16,0.00,,---,0.00,VWS V14.01,2013-03-08 01:09:00,
2013-03-07 20:14:00,52.3,7.5,30.19,NNE,12,0.0,0.0,16,0.00,,---,0.00,VWS V14.01,2013-03-08 01:14:00,
2013-03-07 20:19:00,52.2,7.3,30.19,NNE,12,0.0,0.0,16,0.00,,---,0.00,VWS V14.01,2013-03-08 01:19:00,
2013-03-07 20:24:00,52.0,9.8,30.19,NNE,12,0.0,0.0,18,0.00,,---,0.00,VWS V14.01,2013-03-08 01:24:00,
2013-03-07 20:29:00,51.8,9.7,30.19,NNE,12,0.0,0.0,18,0.00,,---,0.00,VWS V14.01,2013-03-08 01:29:00,
2013-03-07 20:34:00,51.8,9.7,30.19,NNE,12,0.0,0.0,18,0.00,,---,0.00,VWS V14.01,2013-03-08 01:34:00,
2013-03-07 20:39:00,51.6,10.7,30.19,NNE,12,0.0,0.0,19,0.00,,---,0.00,VWS V14.01,2013-03-08 01:39:00,
2013-03-07 20:44:00,51.6,10.7,30.19,NNE,12,0.0,0.0,19,0.00,,---,0.00,VWS V14.01,2013-03-08 01:44:00,
2013-03-07 20:49:00,51.4,12.8,30.19,NNE,12,0.0,0.0,21,0.00,,---,0.00,VWS V14.01,2013-03-08 01:49:00,
2013-03-07 20:54:00,51.4,12.8,30.19,NNE,12,0.0,0.0,21,0.00,,---,0.00,VWS V14.01,2013-03-08 01:54:00,
2013-03-07 20:59:00,51.4,15.9,30.19,NNE,12,0.0,0.0,24,0.00,,---,0.00,VWS V14.01,2013-03-08 01:59:00,
2013-03-07 21:04:00,51.3,15.7,30.19,NNE,12,0.0,0.0,24,0.00,,---,0.00,VWS V14.01,2013-03-08 02:04:00,
2013-03-07 21:09:00,51.3,15.7,30.19,NNE,12,0.0,0.0,24,0.00,,---,0.00,VWS V14.01,2013-03-08 02:09:00,
2013-03-07 21:14:00,51.3,15.7,30.19,NNE,12,0.0,0.0,24,0.00,,---,0.00,VWS V14.01,2013-03-08 02:14:00,
2013-03-07 21:19:00,51.1,12.5,30.19,NNE,12,0.0,0.0,21,0.00,,---,0.00,VWS V14.01,2013-03-08 02:19:00,
2013-03-07 21:24:00,50.9,15.4,30.19,NNE,12,0.0,0.0,24,0.00,,---,0.00,VWS V14.01,2013-03-08 02:24:00,
2013-03-07 21:29:00,50.9,15.4,30.19,NNE,12,0.0,0.0,24,0.00,,---,0.00,VWS V14.01,2013-03-08 02:29:00,
2013-03-07 21:34:00,50.7,15.3,30.19,NNE,12,0.0,0.0,24,0.00,,---,0.00,VWS V14.01,2013-03-08 02:34:00,
2013-03-07 21:39:00,50.5,15.1,30.19,NNE,12,0.0,0.0,24,0.00,,---,0.00,VWS V14.01,2013-03-08 02:39:00,
2013-03-07 21:44:00,50.4,14.9,30.19,NNE,12,0.0,0.0,24,0.00,,---,0.00,VWS V14.01,2013-03-08 02:44:00,
2013-03-07 21:49:00,50.4,14.9,30.19,NNE,12,0.0,0.0,24,0.00,,---,0.00,VWS V14.01,2013-03-08 02:49:00,
2013-03-07 21:54:00,50.2,16.6,30.22,NNE,12,0.0,0.0,26,0.00,,---,0.00,VWS V14.01,2013-03-08 02:54:00,
2013-03-07 21:59:00,50.2,16.6,30.22,NNE,12,0.0,0.0,26,0.00,,---,0.00,VWS V14.01,2013-03-08 02:59:00,
2013-03-07 22:04:00,50.2,16.6,30.22,NNE,12,0.0,0.0,26,0.00,,---,0.00,VWS V14.01,2013-03-08 03:04:00,
2013-03-07 22:09:00,50.2,16.6,30.19,NNE,12,0.0,0.0,26,0.00,,---,0.00,VWS V14.01,2013-03-08 03:09:00,
2013-03-07 22:14:00,50.0,16.5,30.19,NNE,12,0.0,0.0,26,0.00,,---,0.00,VWS V14.01,2013-03-08 03:14:00,
2013-03-07 22:19:00,49.8,17.2,30.19,NNE,12,0.0,0.0,27,0.00,,---,0.00,VWS V14.01,2013-03-08 03:19:00,
2013-03-07 22:24:00,49.6,17.0,30.19,NNE,12,0.0,0.0,27,0.00,,---,0.00,VWS V14.01,2013-03-08 03:24:00,
2013-03-07 22:29:00,49.5,16.9,30.19,NNE,12,0.0,0.0,27,0.00,,---,0.00,VWS V14.01,2013-03-08 03:29:00,
2013-03-07 22:34:00,49.3,16.7,30.19,NNE,12,0.0,0.0,27,0.00,,---,0.00,VWS V14.01,2013-03-08 03:34:00,
2013-03-07 22:39:00,49.3,17.6,30.19,NNE,12,0.0,0.0,28,0.00,,---,0.00,VWS V14.01,2013-03-08 03:39:00,
2013-03-07 22:44:00,49.1,17.4,30.19,NNE,12,0.0,0.0,28,0.00,,---,0.00,VWS V14.01,2013-03-08 03:44:00,
2013-03-07 22:49:00,49.1,17.4,30.19,NNE,12,0.0,0.0,28,0.00,,---,0.00,VWS V14.01,2013-03-08 03:49:00,
2013-03-07 22:54:00,49.1,18.2,30.19,NNE,12,0.0,0.0,29,0.00,,---,0.00,VWS V14.01,2013-03-08 03:54:00,
2013-03-07 22:59:00,48.9,18.9,30.19,NNE,12,0.0,0.0,30,0.00,,---,0.00,VWS V14.01,2013-03-08 03:59:00,
2013-03-07 23:04:00,48.9,18.9,30.19,NNE,12,0.0,0.0,30,0.00,,---,0.00,VWS V14.01,2013-03-08 04:04:00,
2013-03-07 23:09:00,48.7,18.7,30.19,NNE,12,0.0,0.0,30,0.00,,---,0.00,VWS V14.01,2013-03-08 04:09:00,
2013-03-07 23:14:00,48.7,18.7,30.19,NNE,12,0.0,0.0,30,0.00,,---,0.00,VWS V14.01,2013-03-08 04:14:00,
2013-03-07 23:19:00,48.6,19.3,30.19,NNE,12,0.0,0.0,31,0.00,,---,0.00,VWS V14.01,2013-03-08 04:19:00,
2013-03-07 23:24:00,48.4,19.2,30.19,NNE,12,0.0,0.0,31,0.00,,---,0.00,VWS V14.01,2013-03-08 04:24:00,
2013-03-07 23:29:00,48.2,19.7,30.19,NNE,12,0.0,0.0,32,0.00,,---,0.00,VWS V14.01,2013-03-08 04:29:00,
2013-03-07 23:34:00,48.0,19.6,30.19,NNE,12,0.0,0.0,32,0.00,,---,0.00,VWS V14.01,2013-03-08 04:34:00,
2013-03-07 23:39:00,48.0,19.6,30.19,NNE,12,0.0,0.0,32,0.00,,---,0.00,VWS V14.01,2013-03-08 04:39:00,
2013-03-07 23:44:00,47.8,20.1,30.19,NNE,12,0.0,0.0,33,0.00,,---,0.00,VWS V14.01,2013-03-08 04:44:00,
2013-03-07 23:49:00,47.8,20.1,30.19,NNE,12,0.0,0.0,33,0.00,,---,0.00,VWS V14.01,2013-03-08 04:49:00,
2013-03-07 23:54:00,47.7,20.7,30.19,NNE,12,0.0,0.0,34,0.00,,---,0.00,VWS V14.01,2013-03-08 04:54:00,
2013-03-07 23:59:00,47.7,20.7,30.19,NNE,12,0.0,0.0,34,0.00,,---,0.00,VWS V14.01,2013-03-08 04:59:00,